Location: Oak Glen
(34.0495°N, 116.9470°E)
Time: 22:36:04
(UTC-08:00)

Vanguard 1 - Visible Passes

Search period start: 14 December 2017 00:00
Search period end: 24 December 2017 00:00
Orbit: 650 x 3833 km, 34.2° (Epoch: 13 December)

Date Brightness Start Highest point End Pass type
(mag) Time Alt. Az. Time Alt. Az. Time Alt. Az.
14 Dec 14.3 13:57:41 10° SSW 14:17:02 35° SE 14:34:05 10° E visible
15 Dec 14.6 12:04:50 10° SSE 12:13:51 14° SE 12:22:59 10° ESE visible
15 Dec 14.0 14:17:22 10° SSW 14:38:15 43° SE 14:56:10 10° E visible
16 Dec 14.3 12:20:53 10° S 12:34:49 21° SE 12:48:59 10° E visible
16 Dec 13.8 14:37:33 10° SW 14:59:32 52° SSE 15:17:54 10° ENE visible
17 Dec 14.2 12:39:02 10° S 12:55:45 28° SE 13:12:43 10° E visible
18 Dec 14.0 12:58:08 10° SSW 13:16:43 36° SE 13:35:27 10° E visible
19 Dec 14.3 11:06:03 10° SSE 11:14:13 13° SE 11:22:57 10° ESE visible
19 Dec 13.8 13:17:52 10° SSW 13:37:45 45° SE 13:57:37 10° ENE visible
20 Dec 14.1 11:22:07 10° S 11:34:55 20° SE 11:49:11 10° E visible
20 Dec 13.6 13:38:02 10° SW 13:58:55 53° SE 14:19:28 10° ENE visible
21 Dec 14.0 11:40:20 10° S 11:55:37 28° SE 12:13:04 10° E visible
21 Dec 13.4 13:58:34 10° SW 14:20:12 62° SSE 14:41:06 10° ENE visible
22 Dec 13.8 11:59:30 10° SSW 12:16:21 36° SE 12:35:55 10° E visible
22 Dec 13.3 14:19:25 10° SW 14:41:40 71° SSE 15:02:38 10° ENE visible
23 Dec 14.1 10:08:35 10° SE 10:14:48 12° ESE 10:21:38 10° ESE visible
23 Dec 13.5 12:19:14 10° SSW 12:37:13 45° SE 12:58:14 10° ENE visible
23 Dec 13.2 14:40:33 10° WSW 15:03:17 78° SSE 15:24:06 10° ENE visible
